CAPE
665 1187 1377 1657 1676 1554 1275 1404 1266 884 668 436 936 814 540 280 240 675 1055 961 1540 1764 2025 2357 2564 2699 3367 3214 2789 2421 1706 1289 1064 1038 1176 1778 1494 1344 1271 1193 1057 1036 1125
1213 1289 1612 1652 1839 1888 2282 1618 1571 958 1071 967 579 433 408 491 590 641 858 1851 1646 1941 2261 2406 2508 2728 3392 3005 2660 1927 1594 1311 1145 981 1191 1497 1402 1344 1331 1278 1137 1038 830
1260 1127 1472 1663 1898 1908 1959 2109 1662 929 1066 1229 1299 1456 1795 1924 2146 1664 1559 1274 1408 1262 1787 2363 2598 3048 2863 2742 2358 1965 1665 1728 1651 1537 1098 985 966 1240 1151 1055 1017 1032 627
1039 1263 1662 1751 2193 2335 2557 2401 1334 876 928 1078 1223 1283 1452 1718 1831 1888 833 315 517 1247 1600 1668 2212 3140 2925 2471 2284 2031 1888 1858 1849 1781 1824 1722 1548 1241 941 954 809 653 653
880 1311 1533 1893 2357 2566 2239 2318 1635 1115 1073 1079 1014 1096 1256 1486 1409 1059 380 174 277 409 954 704 991 1699 2308 2218 1889 1941 1957 1946 1881 1844 1694 1707 1393 1249 947 802 602 439 329
494 1226 1452 1593 2048 2667 2486 1923 1664 1363 1309 1221 946 987 1006 1159 1379 1118 695 337 90 14 281 460 842 1078 1303 1784 1509 1614 1954 1969 1845 1684 1475 1323 1129 894 686 579 413 303 328
1212 1058 1283 1075 1992 2356 2472 1800 1338 1119 871 818 884 1095 725 529 725 738 259 119 59 44 365 267 423 848 1466 1435 1335 1167 1822 1937 1674 1534 1249 1086 905 726 604 474 442 253 219
1078 1659 772 827 1378 2342 2037 2287 1677 1081 842 895 1162 1170 1339 1541 610 324 197 132 96 60 106 183 293 887 1455 1763 1307 915 1355 1817 1653 1416 1083 902 762 611 461 406 437 470 298
646 1604 718 1073 1472 2160 1737 1281 1437 1113 1167 463 538 802 673 358 369 148 106 182 76 79 132 347 636 967 1264 1494 1643 970 888 1532 1549 1360 1033 783 627 539 431 331 251 104 0
1096 1258 1394 1215 1473 1919 1806 1385 591 884 554 627 273 191 146 127 210 315 126 96 67 152 626 924 1193 1170 1145 1434 1502 754 388 1211 1282 1298 1009 776 657 525 341 173 36 0 0
1321 766 1638 1558 1327 1602 2036 1742 389 611 393 399 321 329 471 330 273 255 266 110 220 453 575 903 1247 1682 1511 1571 1859 1228 253 488 1045 1103 1007 854 733 520 409 176 0 0 0
1103 994 1167 1582 1664 1113 1664 1769 1074 1177 1277 1182 1063 700 1057 1273 1243 685 1092 804 716 644 976 1140 1252 1577 2109 2014 1430 1166 534 87 428 663 897 875 700 604 482 271 47 0 0
666 998 1052 1140 968 1106 1193 1829 1959 1924 1545 1668 1758 1676 1500 1286 745 601 974 1233 1138 1148 1062 1231 1139 1846 1950 2464 1896 1518 853 190 47 305 553 645 574 546 498 358 219 74 0
786 830 1019 1214 1290 1176 1365 1640 1762 1744 2023 2055 1988 1829 1880 1434 879 805 853 1183 938 846 1146 1025 1532 1722 2279 1945 1459 1383 1424 708 15 9 145 422 558 435 417 382 277 141 55
728 727 735 905 992 1014 1420 1437 1629 1576 1715 1954 1932 1874 1797 1645 1037 1044 919 1023 1268 796 740 1392 1409 1730 2106 2126 1610 1794 1570 751 171 0 0 2 131 354 306 236 214 171 85
764 699 802 828 868 915 1150 1293 1470 1490 1368 1587 1644 1425 1406 1766 1777 1650 1719 1791 1310 1364 634 1338 1510 1543 1962 1704 1384 1941 1270 835 314 169 9 0 0 0 86 262 174 115 93
914 859 1010 1092 1128 1035 943 1157 860 1130 1177 1203 1388 1433 1191 1443 1283 1489 1386 1587 1529 1421 1001 1373 1457 1502 1738 1650 1520 1383 1288 1623 1315 535 434 192 0 0 0 0 0 73 141
965 931 992 903 862 1036 1238 1038 947 884 944 808 968 1163 1231 1080 1275 1209 1167 945 1205 1266 1186 1099 740 1241 1441 1542 1428 1599 954 1193 1370 430 136 82 51 2 0 0 0 0 0
733 756 830 803 957 831 809 1184 921 852 840 856 819 873 814 840 623 804 718 1131 1096 1179 1212 910 716 1032 1267 1189 1293 1222 1466 1358 963 379 90 0 0 0 0 0 0 0 0
885 786 704 747 739 838 989 907 953 825 489 571 647 599 781 723 680 462 368 428 833 682 733 548 638 680 871 1471 1483 1039 727 978 558 277 27 0 0 0 0 0 0 0 0
576 499 702 637 633 465 389 442 627 653 665 449 523 574 731 429 275 452 460 345 420 415 646 609 534 625 691 899 1076 969 758 852 0 18 18 101 0 0 0 0 0 0 0
743 807 785 811 642 388 24 41 115 397 606 543 346 392 520 272 389 66 131 174 354 418 347 604 535 306 670 892 511 181 673 631 415 0 0 13 0 0 0 0 0 0 0
745 725 560 609 416 121 0 18 25 47 92 522 648 462 407 143 102 372 0 2 4 39 104 558 316 615 727 844 145 79 824 58 0 0 0 4 0 0 0 0 0 0 0
356 342 222 141 118 0 0 0 0 24 23 91 262 428 148 23 13 24 4 0 0 0 0 0 0 0 0 16 0 396 625 163 0 0 0 0 19 0 0 0 0 0 0
21 49 19 3 0 0 0 0 0 56 43 15 6 7 2 1 0 7 0 0 0 0 0 0 0 0 0 0 4 140 70 340 204 0 0 0 0 5 0 0 0 0 0
0 1 0 0 0 0 0 0 0 31 2 0 1 0 0 0 0 0 0 0 0 0 0 0 0 0 0 0 0 0 0 0 0 0 0 0 0 0 30 0 0 0 0
CIN
-59 -53 -53 -48 -42 -44 -45 -40 -53 -81 -88 -124 -71 -90 -111 -165 -209 -156 -124 -196 -173 -164 -125 -88 -63 -20 -5 -10 -21 -23 -107 -185 -239 -212 -131 -5 -6 -8 -11 -9 -6 -6 -1
-53 -46 -40 -35 -36 -40 -36 -46 -53 -61 -55 -70 -106 -138 -147 -153 -180 -225 -226 -130 -198 -176 -140 -106 -61 -25 -7 -21 -25 -88 -141 -188 -222 -248 -142 -36 -14 -14 -6 -6 -7 -9 -13
-55 -57 -44 -43 -44 -44 -45 -44 -61 -90 -79 -72 -77 -84 -77 -99 -102 -149 -166 -213 -240 -237 -177 -111 -57 -18 -24 -31 -53 -91 -138 -114 -115 -119 -181 -149 -99 -30 -24 -13 -8 -9 -16
-73 -51 -41 -39 -50 -42 -43 -43 -50 -82 -89 -80 -88 -117 -134 -142 -151 -147 -226 -271 -298 -196 -145 -152 -90 -15 -16 -48 -62 -87 -95 -96 -83 -71 -35 -11 -16 -36 -48 -15 -13 -32 -11
-65 -54 -49 -49 -48 -31 -33 -42 -61 -74 -72 -85 -101 -125 -165 -161 -179 -196 -269 -281 -268 -239 -164 -208 -188 -127 -57 -65 -112 -108 -89 -81 -75 -51 -49 -18 -38 -30 -34 -16 -18 -24 -17
-78 -59 -56 -51 -40 -25 -30 -44 -55 -85 -83 -88 -103 -133 -165 -185 -194 -196 -191 -250 -261 -285 -200 -205 -175 -144 -157 -117 -151 -158 -100 -80 -75 -61 -68 -71 -73 -70 -59 -36 -23 -28 -24
-55 -60 -41 -53 -40 -27 -32 -62 -79 -88 -95 -165 -112 -91 -149 -189 -217 -223 -263 -251 -300 -276 -153 -170 -182 -160 -68 -134 -165 -219 -127 -83 -94 -79 -97 -105 -94 -90 -58 -45 -23 -27 -31
-53 -33 -63 -63 -60 -25 -40 -40 -61 -70 -103 -171 -90 -98 -38 -62 -148 -239 -267 -237 -222 -173 -159 -157 -184 -148 -82 -55 -146 -241 -190 -85 -81 -95 -128 -137 -117 -112 -97 -43 -32 -18 -24
-59 -40 -74 -57 -42 -29 -30 -61 -60 -81 -62 -177 -217 -110 -66 -67 -114 -223 -261 -209 -226 -173 -163 -145 -143 -140 -98 -70 -71 -176 -233 -115 -73 -78 -123 -161 -156 -123 -102 -76 -55 -100 -6
-31 -28 -32 -39 -41 -24 -20 -51 -111 -102 -146 -116 -217 -262 -278 -229 -94 -63 -154 -221 -215 -162 -106 -92 -88 -100 -81 -53 -86 -178 -274 -140 -96 -58 -103 -146 -150 -138 -133 -137 -171 0 0
-24 -35 -23 -24 -30 -22 -27 -38 -113 -114 -150 -150 -170 -177 -159 -182 -216 -122 -59 -94 -95 -97 -84 -68 -78 -45 -50 -45 -35 -87 -222 -212 -128 -95 -82 -104 -116 -139 -120 -140 0 0 0
-17 -24 -22 -18 -24 -33 -23 -28 -58 -60 -59 -69 -87 -123 -85 -56 -52 -72 -31 -48 -55 -52 -54 -55 -55 -45 -27 -29 -55 -98 -136 -273 -170 -158 -124 -104 -120 -102 -93 -112 -113 0 0
-15 -15 -21 -20 -12 -14 -27 -25 -25 -22 -40 -36 -43 -42 -66 -77 -106 -106 -54 -31 -26 -35 -29 -34 -49 -33 -19 -19 -44 -83 -121 -180 -258 -166 -156 -126 -135 -109 -84 -97 -111 -159 0
-17 -22 -22 -16 -14 -10 -19 -19 -15 -13 -16 -18 -25 -39 -36 -54 -99 -97 -66 -35 -9 -7 -19 -34 -32 -29 -27 -39 -74 -97 -85 -146 -258 -151 -203 -149 -117 -126 -97 -78 -88 -125 -184
-30 -34 -34 -24 -22 -20 -17 -17 -7 -14 -15 -11 -13 -22 -22 -34 -63 -73 -80 -68 -22 -2 -1 -7 -15 -52 -42 -32 -68 -31 -51 -131 -162 0 0 -15 -187 -132 -129 -112 -96 -105 -185
-34 -33 -28 -31 -34 -31 -20 -18 -8 -10 -15 -5 -5 -12 -19 -13 -18 -30 -31 -33 -40 -15 -1 -17 -21 -44 -45 -21 -56 -39 -75 -92 -145 -169 -97 0 0 0 -95 -126 -125 -118 -133
-32 -34 -27 -22 -23 -28 -27 -21 -15 -8 -8 -8 -9 -9 -11 -22 -6 -9 -9 -11 -16 -21 -1 -4 -25 -32 -25 -28 -33 -33 -31 -27 -49 -121 -131 -171 0 0 0 0 0 -119 -125
-27 -32 -27 -28 -33 -38 -28 -25 -15 -5 -8 -7 -11 -12 -12 -11 -15 -12 -5 -10 -6 -11 -8 -6 -14 -15 -17 -31 -38 -37 -33 -20 -15 -129 -188 -194 -210 -13 0 0 0 0 0
-28 -25 -32 -30 -21 -19 -17 -23 -16 -8 -9 -7 -9 -14 -10 -11 -11 -6 -10 -5 -6 -5 -7 -8 -2 -16 -16 -30 -24 -36 -18 -15 -2 -67 -155 0 0 0 0 0 0 0 0
-23 -23 -22 -24 -31 -30 -28 -18 -14 -11 -14 -7 -8 -9 -4 -4 -13 -12 -18 -20 -8 -13 -10 -10 -6 -8 -14 -5 -9 -5 -7 -3 -16 -20 -41 0 0 0 0 0 0 0 0
-30 -22 -22 -27 -32 -25 -21 -15 -9 -6 -8 -13 -5 -7 -5 -22 -43 -33 -12 -22 -17 -15 -2 -10 -11 -6 -1 -1 -1 -1 0 0 0 -10 -5 -11 0 0 0 0 0 0 0
-13 -30 -26 -28 -20 -56 -212 -154 -115 -43 -14 -11 -12 -13 -9 -70 -56 -103 -72 -54 -37 -13 -16 -7 -2 -14 -15 -3 -20 -42 0 -1 -1 0 0 -1 0 0 0 0 0 0 0
-20 -25 -38 -35 -50 -115 -62 -235 -230 -180 -100 -36 -21 -17 -38 -78 -88 -62 0 -82 -107 -123 -99 -17 -18 -10 -8 -4 -62 -34 0 -24 0 0 0 0 0 0 0 0 0 0 0
-45 -60 -79 -99 -111 0 0 0 0 -212 -183 -83 -53 -41 -65 -116 -136 -134 -171 -69 0 0 0 0 0 0 0 -50 0 -11 0 -18 0 0 0 0 -9 0 0 0 0 0 0
-99 -144 -214 -30 0 0 0 0 0 -167 -167 -172 -32 -203 -90 -37 0 -146 0 0 0 0 0 0 0 0 0 0 -14 -13 -16 0 -1 0 0 0 0 -1 0 0 0 0 0
-40 -222 0 0 0 0 0 0 0 -144 -14 0 0 0 0 0 0 0 0 0 0 0 0 0 0 0 0 0 0 0 0 0 0 0 0 0 0 0 -1 0 0 0 0
Wind_Speed
11 11 11 10 10 13 11 13 12 11 15 16 21 21 22 21 19 20 18 16 12 11 12 11 10 10 11 18 17 12 15 16 14 14 14 13 14 15 17 19 20 28 29
13 12 12 12 11 13 15 16 13 14 16 16 19 19 18 17 18 17 19 15 15 21 18 13 10 14 21 20 19 15 28 23 20 20 22 20 17 15 14 14 18 25 32
14 13 13 13 12 13 15 16 18 19 18 16 17 17 16 18 18 18 20 22 20 25 14 7 13 16 25 19 19 25 29 28 22 22 22 18 17 17 16 16 18 23 22
14 14 14 13 12 13 12 14 17 19 17 16 15 15 17 18 20 21 21 22 21 18 7 5 9 10 23 21 22 27 28 30 19 21 22 20 18 17 15 16 18 20 8
15 14 13 13 12 12 12 13 16 17 17 16 15 13 15 16 18 17 19 19 22 7 9 6 3 9 19 21 22 26 30 30 25 26 25 24 23 21 18 20 21 23 23
16 15 14 14 13 13 13 12 13 13 15 14 13 11 15 16 17 16 16 12 9 9 9 7 5 9 15 21 24 28 31 30 30 28 27 28 28 28 27 26 26 25 21
17 16 14 14 13 14 15 14 14 14 14 16 12 12 14 15 16 17 16 12 9 11 11 8 7 6 13 18 28 29 31 30 29 26 28 29 29 30 30 29 28 29 28
18 17 15 15 15 15 15 16 16 16 16 18 18 18 8 10 14 16 14 12 8 11 10 9 7 7 11 17 26 30 31 30 27 25 28 29 28 29 30 29 29 29 28
19 18 16 16 16 16 16 16 17 17 18 18 19 9 9 10 8 13 9 9 9 12 13 14 13 11 12 13 22 28 29 29 27 22 25 27 27 27 27 27 25 22 21
21 21 20 18 17 17 17 17 17 18 18 20 4 15 10 10 8 9 10 10 14 14 16 16 17 20 21 16 27 28 27 28 27 22 22 24 25 25 24 24 23 22 21
19 21 22 21 19 20 18 17 16 16 17 12 10 12 13 11 11 11 9 10 16 17 17 14 21 24 23 23 23 26 25 26 27 24 21 22 23 22 22 21 22 22 22
22 22 22 23 21 21 20 19 18 18 18 19 17 14 14 13 12 11 11 11 11 11 12 18 24 22 22 23 21 23 23 23 24 24 22 21 20 20 20 19 20 20 21
24 24 24 24 23 21 21 21 21 21 20 19 18 17 15 12 14 12 10 10 9 10 10 13 22 17 9 22 21 19 19 20 21 20 18 19 20 18 18 18 19 19 19
25 24 24 25 25 23 21 22 23 22 21 19 20 19 18 18 12 11 10 10 9 8 12 9 9 14 12 13 4 18 18 17 18 18 17 15 15 16 16 16 16 17 18
24 26 26 26 25 26 25 23 24 24 22 20 17 17 20 20 15 12 10 9 10 11 9 12 8 15 14 17 12 18 20 19 16 16 14 14 14 14 14 14 14 15 16
25 26 26 28 27 26 26 25 25 25 24 24 23 23 22 22 22 14 12 10 9 10 12 10 14 12 16 18 18 18 21 22 21 6 11 12 11 12 12 13 14 15 15
24 26 26 26 27 28 28 27 26 27 26 26 25 25 25 24 24 3 7 16 10 9 12 11 12 15 16 18 18 17 19 21 22 21 18 12 10 11 12 13 15 15 15
25 24 24 26 25 25 27 22 29 28 28 27 26 25 25 21 18 12 10 14 7 8 11 13 10 12 15 14 14 18 17 21 21 21 21 21 20 21 19 13 14 15 16
23 22 23 24 25 26 21 17 18 24 21 23 22 22 23 22 20 17 13 15 15 13 11 8 7 13 14 19 17 19 19 20 19 19 21 21 21 21 21 21 21 18 14
23 21 21 20 20 22 21 21 23 23 25 29 25 25 25 23 28 19 14 16 14 15 15 15 14 16 15 16 17 18 18 18 19 19 20 20 20 22 23 22 22 22 21
20 21 20 22 23 22 22 24 25 28 27 26 27 25 25 23 25 21 16 13 12 15 15 15 15 16 16 17 18 19 18 15 18 19 18 19 20 21 22 23 23 23 23
19 18 20 20 21 20 23 23 26 29 29 28 28 25 22 23 25 23 20 17 15 14 14 15 17 16 17 17 18 21 19 14 15 19 17 18 19 20 21 22 23 23 23
19 19 19 18 19 20 23 23 24 25 29 30 29 22 20 22 24 21 17 17 17 16 18 18 17 16 17 17 17 16 15 15 16 19 17 18 17 18 19 21 23 24 24
16 10 19 20 19 20 22 22 23 23 23 25 24 22 20 19 21 20 18 17 19 19 19 19 19 20 19 16 15 14 14 12 14 19 19 18 17 17 17 19 23 24 25
18 18 16 18 22 21 25 25 22 21 21 21 19 19 21 22 23 19 17 16 17 16 16 15 16 17 18 18 16 14 14 12 15 18 21 19 20 17 18 19 20 23 25
17 17 16 17 20 25 27 26 22 20 21 20 20 21 20 20 20 17 15 15 15 14 14 14 16 17 18 18 19 18 19 17 18 18 23 21 21 21 19 18 21 24 25
Wind_Direction
215 219 225 233 228 207 209 191 194 198 174 162 135 124 112 105 113 89 98 98 110 108 101 100 93 88 82 69 68 73 70 75 85 90 103 138 144 152 166 175 176 192 192
217 223 223 224 235 213 194 187 203 192 176 166 139 126 118 117 94 84 62 95 91 64 74 90 97 79 66 66 66 71 40 61 75 79 79 82 93 113 125 139 161 182 215
214 219 222 216 226 217 203 194 180 179 171 171 147 132 128 95 79 70 59 52 47 22 311 126 94 75 55 69 69 55 42 47 73 76 79 93 95 96 106 141 151 174 167
213 217 215 218 223 217 216 208 191 180 190 177 174 152 99 74 55 51 52 53 51 61 254 255 113 92 62 66 68 55 50 30 79 80 80 84 95 98 117 123 118 144 88
213 220 225 220 230 227 222 209 196 199 195 177 169 144 81 67 49 56 54 61 45 220 255 237 210 100 73 68 69 59 47 31 65 65 73 76 77 87 105 95 104 125 112
214 211 225 224 230 233 224 234 224 230 218 234 173 111 65 61 57 57 60 65 81 194 203 206 168 106 82 70 66 58 43 44 48 67 72 72 71 74 76 82 88 89 90
220 215 234 233 244 239 236 239 247 256 279 287 207 80 61 54 54 54 60 79 105 196 178 201 154 123 89 77 55 54 45 51 61 80 78 78 78 79 77 80 82 97 108
219 225 230 241 244 245 244 247 257 258 278 298 298 1 182 73 69 59 76 103 142 156 175 201 175 134 102 86 59 47 48 54 70 86 81 84 87 89 88 98 105 105 117
232 232 242 246 242 247 256 258 249 269 274 306 340 140 211 221 216 98 139 150 145 140 124 122 116 111 106 102 73 50 52 58 71 97 91 89 93 99 103 105 120 138 148
233 228 231 242 245 252 263 267 267 270 289 294 92 62 126 204 189 194 154 144 123 119 111 98 81 62 16 330 44 40 56 61 69 97 102 98 98 103 111 116 121 133 144
238 232 231 228 245 242 267 282 300 305 305 231 154 200 215 205 145 158 173 154 104 102 91 97 57 19 9 8 3 36 67 67 68 90 107 105 106 110 115 121 124 128 135
242 236 232 231 237 245 261 273 285 289 286 296 274 244 226 223 199 176 149 135 129 125 102 68 22 357 11 22 355 36 70 80 84 88 102 109 118 121 124 128 130 133 136
238 233 233 228 240 250 256 260 260 262 246 252 271 272 254 207 117 156 178 128 150 128 115 89 11 309 232 30 9 3 78 83 86 102 112 110 112 129 136 137 135 138 142
242 241 237 237 237 240 264 264 254 251 244 230 257 267 259 293 136 138 174 213 188 164 105 125 150 278 265 287 227 79 77 91 93 90 108 126 130 131 141 149 153 150 147
248 239 243 236 238 246 256 267 249 240 234 223 327 329 284 301 204 186 158 163 191 211 179 88 197 293 284 319 281 350 8 65 98 99 116 122 132 145 151 161 166 167 168
252 246 252 244 246 247 248 254 249 253 251 242 247 268 289 292 257 203 195 182 151 184 211 131 52 104 311 18 351 352 17 20 3 196 139 145 159 168 167 165 169 168 167
269 258 258 259 257 248 247 250 261 256 254 262 270 271 274 286 272 101 40 215 174 142 185 128 113 56 35 12 342 324 23 28 6 347 319 270 167 185 206 209 201 192 184
272 276 276 270 275 276 263 287 256 261 265 266 276 286 286 307 327 6 21 5 119 65 172 186 116 60 38 66 69 2 40 359 2 9 4 356 352 353 339 236 214 206 199
282 288 287 282 278 279 294 302 301 292 296 297 302 302 298 305 314 333 351 349 351 9 26 89 134 3 6 335 4 354 2 1 10 21 19 8 5 356 347 344 335 295 215
286 289 293 294 295 295 296 294 294 294 287 278 291 293 293 299 283 314 333 332 344 346 347 348 352 345 351 349 347 351 3 358 352 359 5 7 2 357 352 350 347 348 341
290 293 297 294 292 295 298 295 294 285 288 289 290 294 293 295 296 306 317 332 339 334 336 342 345 344 345 344 334 330 342 9 357 350 356 356 348 350 346 351 358 0 358
292 296 299 302 302 302 299 301 296 288 284 286 287 294 302 298 295 301 307 316 324 331 335 337 326 337 338 337 331 317 326 352 356 344 357 358 356 356 355 359 358 359 357
288 291 296 302 305 306 305 304 305 300 287 285 288 301 305 306 302 304 314 320 321 324 322 323 327 335 332 335 338 342 345 347 343 334 344 347 353 354 354 352 353 354 354
292 304 290 294 303 305 307 308 308 309 304 296 298 300 306 306 304 305 307 311 312 314 317 320 323 323 322 331 337 342 347 357 353 345 337 340 340 346 350 351 350 350 349
294 293 298 298 297 305 307 305 307 311 313 306 304 303 303 301 298 300 304 305 311 322 332 339 343 341 339 334 330 336 336 340 338 340 339 339 338 339 338 338 342 346 345
297 299 300 307 304 296 302 306 306 305 305 305 306 305 307 307 304 291 307 304 309 314 322 327 332 338 342 343 339 333 330 328 328 331 332 332 333 334 329 336 336 336 336